User: anonymous   Login
Location: Unspecified
(0.0000°N, 0.0000°E)
Time: 18:55:38
(UTC+00:00)
Language:

CUBEBUG 1 - Orbit

View from above orbital plane
View from above orbital plane
View from above satellite
View from above satellite

Ground track
Ground track

The orbit data is extracted from the following two-line orbital elements,

1 39153U 13018D   18351.27097011  .00000173  00000-0  29495-4 0  9993
2 39153  97.9800  85.4792 0018231  74.8048 285.5178 14.80485034304681
Epoch (UTC): 17 December 2018 06:30:11
Eccentricity: 0.0018231
inclination: 97.9800°
perigee height: 615 km
apogee height: 640 km
right ascension of ascending node: 85.4792°
argument of perigee: 74.8048°
revolutions per day: 14.80485034
mean anomaly at epoch: 285.5178°
orbit number at epoch: 30468

The dashed part of the orbit path shows where the satellite is in the earth's shadow,  

DLR